Location: Devore Heights
(34.2372°N, 117.4156°W)
Time: 18:14:00
(UTC+00:00)

deb Explorer IX - Pass Details

Date: 14 September 2024
Orbit: 502 x 816 km, 38.7° (Epoch: 15 October)

Event Time Altitude Azimuth Distance (km) Brightness Sun altitude
Rises 05:03:23 0° 263° (W) 3,415 ? -36.6°
Reaches altitude 10° 05:06:00 10° 266° (W) 2,476 ? -37.1°
Enters shadow 05:08:36 27° 274° (W) 1,584 ? -37.5°
Maximum altitude 05:11:54 64° 348° (NNW) 915 - -38.0°
Drops below altitude 10° 05:17:30 10° 70° (ENE) 2,356 - -38.9°
Sets 05:19:56 0° 73° (ENE) 3,239 - -39.3°
